Location: Nasgenstadt
(48.2786°N, 9.7553°E)
Time: 04:43:09
(UTC+01:00)

ISS - Pass Details

Date: 10 January 2018
Orbit: 402 x 407 km, 51.6° (Epoch: 18 January)

Event Time Altitude Azimuth Distance (km) Brightness Sun altitude
Exits shadow 06:31:22 39° 296° (WNW) 629 -3.4 -15.7°
Maximum altitude 06:32:28 84° 21° (NNE) 414 -3.9 -15.6°
Drops below altitude 10° 06:35:46 10° 110° (ESE) 1,466 0.4 -15.0°
Sets 06:37:50 0° 111° (ESE) 2,325 2.0 -14.7°
